GEFSCGP_prec_meanprecacc_318.txt.gz
Total_Precipitation_Accumulation
0.01 0.02 0.02 0.01 0.02 0.04 0.06 0.12 0.22 0.21 0.19 0.27 0.39 0.59 0.78 0.88 1.06 1.39 1.62 1.62 1.60 1.92 2.38 2.75 3.05 3.17 3.50 3.70 3.86 3.87 4.12 4.56 4.90 4.73 4.42 4.25 4.02 3.80 3.56 3.30 3.21 3.26 3.27 3.45
0.01 0.02 0.01 0.02 0.02 0.03 0.04 0.10 0.19 0.21 0.20 0.33 0.50 0.73 0.88 1.09 1.31 1.44 1.38 1.38 1.53 1.92 2.43 2.80 3.07 3.20 3.46 3.73 4.15 4.28 4.50 4.88 5.03 4.88 4.75 4.60 4.46 4.07 3.94 3.80 3.64 3.28 3.10 3.22
0.01 0.02 0.01 0.02 0.02 0.03 0.06 0.11 0.18 0.18 0.27 0.44 0.58 1.03 1.19 1.32 1.45 1.46 1.40 1.59 1.61 1.70 2.13 2.41 2.52 2.69 2.87 3.01 3.27 3.56 4.07 4.60 4.81 4.88 4.78 4.73 4.76 4.29 4.04 3.91 3.74 3.36 3.09 3.00
0.01 0.02 0.01 0.02 0.03 0.03 0.08 0.10 0.11 0.15 0.27 0.55 0.67 1.31 1.50 1.67 1.77 1.64 1.58 1.52 1.51 1.75 2.07 2.08 1.89 2.04 2.30 2.30 2.60 3.03 3.50 3.87 4.11 4.21 4.22 4.26 4.22 4.14 4.06 3.92 3.55 3.32 3.08 2.96
0.02 0.02 0.03 0.04 0.03 0.03 0.07 0.10 0.12 0.17 0.30 0.55 0.61 1.00 1.51 1.87 2.02 1.64 1.55 1.42 1.49 1.72 1.76 1.71 1.72 1.83 1.98 2.13 2.45 2.76 3.10 3.40 3.57 3.68 3.77 3.89 3.78 3.80 3.70 3.54 3.34 3.14 2.99 2.85
0.03 0.04 0.04 0.04 0.04 0.06 0.07 0.13 0.21 0.29 0.50 0.90 0.77 0.89 1.43 1.79 1.63 1.43 1.36 1.15 1.26 1.46 1.55 1.59 1.68 1.80 1.92 2.22 2.57 2.86 3.10 3.33 3.40 3.20 3.10 3.15 3.21 3.27 3.22 3.09 2.91 2.71 2.66 2.58
0.13 0.11 0.08 0.07 0.08 0.09 0.10 0.23 0.70 1.13 1.45 1.35 0.84 0.95 1.55 1.43 1.09 1.01 1.09 1.08 1.07 1.12 1.26 1.37 1.56 1.75 1.93 2.05 2.14 2.58 3.01 3.18 3.09 2.84 2.66 2.60 2.74 2.86 2.80 2.69 2.62 2.53 2.41 2.36
0.28 0.26 0.15 0.11 0.14 0.15 0.15 0.27 0.78 1.09 1.18 1.16 0.95 1.35 1.84 1.43 0.98 0.84 0.94 0.92 0.81 0.77 0.74 0.83 1.01 1.13 1.27 1.32 1.34 1.52 1.80 2.04 2.12 2.03 2.05 2.11 2.15 2.24 2.25 2.45 2.30 2.29 2.23 2.13
0.17 0.17 0.13 0.14 0.19 0.20 0.26 0.31 0.33 0.56 0.78 1.18 1.20 1.42 1.52 1.25 0.97 0.93 1.00 0.91 0.72 0.68 0.64 0.72 0.83 0.88 0.97 0.99 1.04 1.18 1.42 1.66 1.71 1.72 1.78 1.82 1.85 1.90 1.94 2.00 1.96 1.93 2.00 1.96
0.11 0.12 0.13 0.13 0.17 0.21 0.22 0.30 0.46 0.74 0.99 1.15 1.26 1.63 1.80 1.60 1.33 1.14 1.08 0.96 0.75 0.62 0.61 0.69 0.80 0.83 0.92 1.03 1.19 1.32 1.43 1.52 1.53 1.52 1.53 1.49 1.60 1.63 1.69 1.68 1.63 1.65 1.73 1.75
0.09 0.10 0.15 0.21 0.24 0.25 0.26 0.34 0.50 0.68 0.74 0.97 1.38 1.55 1.31 1.26 1.24 1.30 1.25 1.04 0.81 0.63 0.59 0.65 0.78 0.83 0.88 1.00 1.15 1.30 1.39 1.49 1.46 1.41 1.48 1.53 1.55 1.60 1.59 1.56 1.49 1.56 1.64 1.69
0.10 0.12 0.18 0.27 0.24 0.18 0.25 0.35 0.51 0.77 0.82 0.85 1.03 1.23 0.86 0.86 0.96 1.05 1.05 0.85 0.67 0.61 0.61 0.67 0.78 0.83 0.96 1.03 1.10 1.14 1.25 1.38 1.39 1.41 1.52 1.72 1.69 1.70 1.67 1.54 1.48 1.53 1.55 1.58
0.16 0.16 0.30 0.57 0.53 0.29 0.28 0.28 0.38 0.53 0.65 0.75 0.99 1.19 0.81 0.82 0.96 0.96 0.93 0.82 0.75 0.71 0.70 0.77 0.82 0.81 0.92 1.04 1.08 1.10 1.18 1.31 1.48 1.50 1.56 1.71 1.73 1.69 1.59 1.52 1.49 1.50 1.50 1.53
0.14 0.16 0.27 0.65 0.69 0.46 0.34 0.30 0.33 0.46 0.59 0.57 0.61 0.86 0.86 0.85 0.97 0.98 0.98 0.94 0.93 0.81 0.80 0.92 0.99 0.91 0.90 0.95 0.98 1.03 1.14 1.27 1.31 1.32 1.37 1.48 1.43 1.42 1.44 1.46 1.46 1.43 1.48 1.53
0.14 0.18 0.19 0.29 0.40 0.43 0.40 0.33 0.30 0.32 0.36 0.49 0.57 0.77 0.95 0.96 0.98 0.88 0.84 0.87 0.88 0.84 0.80 0.86 0.80 0.74 0.74 0.75 0.78 0.86 0.90 1.02 1.17 1.26 1.32 1.40 1.44 1.44 1.45 1.41 1.35 1.41 1.49 1.45
0.21 0.26 0.25 0.32 0.40 0.45 0.43 0.38 0.32 0.30 0.28 0.36 0.49 0.70 0.76 0.83 0.87 0.90 0.88 0.89 0.84 0.76 0.77 0.71 0.59 0.54 0.58 0.65 0.68 0.75 0.78 0.86 0.99 1.04 1.14 1.36 1.49 1.52 1.49 1.38 1.39 1.45 1.51 1.58
0.33 0.38 0.36 0.40 0.49 0.62 0.63 0.39 0.36 0.37 0.34 0.46 0.73 0.84 0.84 0.97 0.97 0.90 0.85 0.81 0.74 0.67 0.66 0.62 0.54 0.53 0.59 0.66 0.73 0.78 0.84 0.87 0.94 1.01 1.10 1.18 1.31 1.38 1.33 1.27 1.32 1.36 1.44 1.57
0.39 0.56 0.57 0.54 0.72 0.91 0.73 0.43 0.37 0.42 0.41 0.43 0.58 0.68 0.75 0.97 1.02 0.82 0.70 0.69 0.68 0.64 0.59 0.60 0.60 0.62 0.74 0.74 0.80 0.95 1.07 1.07 1.07 1.17 1.25 1.23 1.31 1.43 1.44 1.42 1.43 1.53 1.59 1.62
0.34 0.54 0.62 0.68 0.85 0.86 0.73 0.59 0.52 0.58 0.66 0.50 0.54 0.61 0.67 0.70 0.82 0.89 0.69 0.71 0.72 0.63 0.64 0.64 0.67 0.74 0.88 0.87 0.90 1.08 1.14 1.19 1.23 1.28 1.38 1.43 1.49 1.59 1.65 1.64 1.71 1.80 1.86 1.76
0.43 0.56 0.72 0.71 0.90 1.05 0.87 0.69 0.61 0.71 1.16 0.78 0.60 0.54 0.64 0.70 1.04 1.12 0.83 0.72 0.71 0.70 0.76 0.81 0.80 0.86 0.94 1.02 1.16 1.28 1.33 1.43 1.50 1.47 1.49 1.58 1.72 1.81 1.88 2.06 2.28 2.37 2.36 2.23
0.86 0.90 0.90 0.88 0.96 0.97 0.83 0.68 0.69 1.19 1.45 0.91 0.73 0.62 0.67 0.75 0.90 0.96 0.81 0.73 0.75 0.82 0.94 1.05 1.16 1.21 1.24 1.17 1.28 1.46 1.66 1.74 1.75 1.88 1.92 1.93 2.03 2.16 2.24 2.48 2.65 2.69 2.67 2.74
1.14 1.17 1.13 1.14 1.34 1.36 0.97 0.94 1.16 1.37 1.19 1.01 0.94 0.87 0.76 0.74 0.78 0.89 0.90 0.87 0.85 0.88 1.04 1.15 1.28 1.35 1.39 1.49 1.59 1.65 1.74 1.85 1.95 2.00 2.10 2.18 2.34 2.28 2.35 2.63 2.69 2.81 2.95 2.96
1.16 1.21 1.25 1.33 1.43 1.29 1.14 1.27 1.33 1.22 1.27 1.20 1.05 1.04 0.92 0.86 0.81 0.79 0.83 0.87 0.92 0.91 0.98 1.15 1.21 1.29 1.43 1.55 1.67 1.88 1.98 1.99 2.06 2.15 2.24 2.40 2.58 2.72 2.80 2.96 3.04 3.01 3.00 2.97
1.30 1.13 1.31 1.50 1.58 1.47 1.51 1.48 1.40 1.36 1.34 1.21 1.04 1.06 1.02 0.93 0.83 0.82 0.89 0.92 0.91 0.91 0.95 1.06 1.14 1.28 1.41 1.53 1.73 1.96 2.02 1.98 2.11 2.26 2.32 2.46 2.61 2.71 2.81 2.99 3.05 3.03 2.98 2.97
1.52 1.45 1.71 1.93 1.93 1.93 1.94 1.77 1.53 1.38 1.25 1.17 1.09 1.10 1.05 1.00 0.96 0.91 0.95 1.03 0.93 0.86 0.94 1.06 1.11 1.22 1.34 1.37 1.57 1.81 1.99 2.08 2.26 2.39 2.49 2.61 2.75 2.88 2.98 2.90 2.98 3.04 3.02 2.93
1.62 1.76 1.99 2.18 2.01 1.97 2.04 1.81 1.52 1.46 1.49 1.42 1.40 1.36 1.28 1.19 1.15 1.06 0.99 1.00 0.96 0.92 0.99 1.15 1.20 1.23 1.30 1.34 1.50 1.67 1.91 2.13 2.44 2.49 2.54 2.62 2.69 2.83 2.84 2.84 2.80 2.77 2.66 2.62

GEFSCGP_prec_meanprecacc_324.txt.gz
Total_Precipitation_Accumulation
0.01 0.02 0.02 0.01 0.02 0.04 0.06 0.12 0.22 0.21 0.20 0.27 0.40 0.60 0.79 0.89 1.12 1.44 1.64 1.63 1.61 1.93 2.39 2.76 3.06 3.17 3.50 3.70 3.87 3.89 4.14 4.58 4.93 4.77 4.45 4.29 4.06 3.83 3.60 3.32 3.23 3.30 3.29 3.47
0.01 0.02 0.01 0.02 0.02 0.03 0.04 0.10 0.19 0.21 0.21 0.33 0.50 0.73 0.89 1.10 1.36 1.49 1.41 1.39 1.54 1.93 2.44 2.82 3.08 3.21 3.47 3.74 4.16 4.29 4.50 4.90 5.05 4.90 4.78 4.64 4.51 4.10 3.98 3.83 3.68 3.31 3.13 3.25
0.01 0.02 0.01 0.02 0.02 0.03 0.06 0.11 0.18 0.19 0.27 0.44 0.58 1.03 1.19 1.33 1.50 1.51 1.43 1.60 1.62 1.71 2.14 2.42 2.53 2.70 2.87 3.02 3.28 3.57 4.08 4.61 4.83 4.90 4.80 4.75 4.78 4.32 4.08 3.95 3.79 3.42 3.13 3.03
0.01 0.02 0.01 0.02 0.03 0.03 0.08 0.10 0.11 0.15 0.27 0.55 0.67 1.32 1.50 1.68 1.82 1.70 1.60 1.53 1.52 1.76 2.08 2.08 1.90 2.05 2.31 2.30 2.61 3.03 3.50 3.88 4.13 4.22 4.23 4.28 4.25 4.17 4.08 3.94 3.58 3.36 3.13 3.01
0.02 0.02 0.03 0.05 0.03 0.03 0.07 0.10 0.12 0.17 0.30 0.55 0.61 1.00 1.52 1.88 2.07 1.69 1.58 1.44 1.51 1.74 1.77 1.72 1.72 1.83 1.98 2.14 2.46 2.77 3.11 3.41 3.59 3.69 3.78 3.90 3.79 3.83 3.72 3.55 3.36 3.17 3.01 2.87
0.03 0.04 0.04 0.04 0.04 0.06 0.07 0.13 0.21 0.29 0.50 0.91 0.77 0.89 1.43 1.80 1.65 1.45 1.39 1.18 1.30 1.48 1.56 1.60 1.69 1.80 1.92 2.22 2.58 2.87 3.12 3.35 3.42 3.21 3.11 3.16 3.22 3.28 3.23 3.09 2.92 2.72 2.68 2.60
0.13 0.11 0.08 0.07 0.08 0.09 0.11 0.24 0.71 1.13 1.46 1.35 0.84 0.95 1.55 1.43 1.10 1.02 1.11 1.11 1.11 1.14 1.28 1.38 1.56 1.76 1.93 2.05 2.15 2.59 3.02 3.20 3.10 2.85 2.67 2.60 2.75 2.87 2.81 2.70 2.63 2.54 2.43 2.38
0.28 0.26 0.15 0.11 0.14 0.15 0.16 0.27 0.78 1.09 1.19 1.16 0.95 1.35 1.84 1.43 0.99 0.84 0.94 0.94 0.83 0.79 0.76 0.84 1.01 1.13 1.28 1.33 1.35 1.53 1.81 2.05 2.13 2.03 2.05 2.12 2.17 2.25 2.26 2.46 2.31 2.30 2.24 2.15
0.17 0.17 0.13 0.14 0.19 0.20 0.26 0.31 0.33 0.56 0.78 1.18 1.20 1.42 1.52 1.25 0.97 0.93 1.00 0.92 0.74 0.69 0.66 0.73 0.83 0.89 0.97 1.00 1.05 1.19 1.43 1.67 1.72 1.73 1.79 1.83 1.85 1.91 1.94 2.01 1.97 1.94 2.01 1.98
0.11 0.12 0.13 0.13 0.17 0.21 0.22 0.30 0.46 0.74 0.99 1.15 1.26 1.63 1.80 1.60 1.33 1.14 1.08 0.96 0.75 0.63 0.62 0.70 0.80 0.84 0.93 1.04 1.20 1.32 1.43 1.53 1.53 1.53 1.54 1.50 1.60 1.63 1.69 1.69 1.64 1.66 1.74 1.77
0.09 0.10 0.15 0.21 0.24 0.25 0.26 0.34 0.50 0.68 0.75 0.97 1.38 1.55 1.31 1.26 1.24 1.30 1.25 1.04 0.81 0.64 0.59 0.66 0.79 0.83 0.89 1.01 1.15 1.30 1.40 1.50 1.47 1.42 1.49 1.54 1.56 1.61 1.59 1.57 1.50 1.57 1.65 1.70
0.10 0.12 0.18 0.27 0.24 0.18 0.25 0.35 0.51 0.77 0.82 0.85 1.03 1.23 0.86 0.86 0.96 1.05 1.06 0.85 0.67 0.61 0.61 0.68 0.79 0.84 0.97 1.04 1.11 1.14 1.26 1.39 1.40 1.41 1.53 1.73 1.71 1.72 1.68 1.55 1.49 1.55 1.56 1.60
0.16 0.16 0.30 0.58 0.53 0.29 0.28 0.28 0.38 0.53 0.65 0.75 0.99 1.19 0.81 0.82 0.96 0.96 0.93 0.83 0.75 0.72 0.71 0.77 0.82 0.81 0.93 1.04 1.09 1.10 1.19 1.32 1.49 1.52 1.57 1.72 1.74 1.70 1.60 1.53 1.50 1.51 1.51 1.54
0.14 0.16 0.27 0.66 0.69 0.46 0.34 0.30 0.33 0.46 0.60 0.57 0.61 0.86 0.86 0.85 0.97 0.98 0.98 0.95 0.93 0.81 0.80 0.92 0.99 0.91 0.91 0.95 0.99 1.03 1.15 1.29 1.33 1.33 1.38 1.48 1.44 1.43 1.45 1.47 1.46 1.44 1.49 1.53
0.14 0.18 0.19 0.29 0.40 0.43 0.40 0.33 0.30 0.32 0.36 0.49 0.57 0.77 0.95 0.96 0.98 0.88 0.84 0.87 0.88 0.84 0.80 0.87 0.80 0.75 0.75 0.77 0.80 0.88 0.92 1.04 1.19 1.27 1.32 1.41 1.45 1.44 1.46 1.41 1.35 1.42 1.49 1.46
0.21 0.26 0.25 0.32 0.40 0.45 0.43 0.38 0.32 0.30 0.28 0.36 0.49 0.70 0.76 0.83 0.87 0.90 0.88 0.89 0.84 0.76 0.77 0.71 0.59 0.54 0.59 0.67 0.70 0.77 0.80 0.88 1.01 1.06 1.16 1.37 1.50 1.52 1.49 1.39 1.39 1.45 1.51 1.58
0.33 0.38 0.36 0.40 0.49 0.62 0.63 0.39 0.36 0.37 0.34 0.46 0.73 0.84 0.84 0.97 0.97 0.90 0.85 0.82 0.74 0.68 0.67 0.63 0.54 0.53 0.59 0.67 0.74 0.80 0.86 0.89 0.96 1.02 1.11 1.19 1.31 1.39 1.33 1.27 1.32 1.36 1.44 1.58
0.39 0.56 0.57 0.54 0.72 0.92 0.73 0.43 0.37 0.42 0.41 0.43 0.58 0.68 0.75 0.97 1.02 0.82 0.70 0.70 0.68 0.65 0.59 0.60 0.60 0.62 0.74 0.75 0.82 0.97 1.08 1.08 1.09 1.19 1.26 1.25 1.32 1.44 1.45 1.42 1.44 1.54 1.60 1.63
0.34 0.54 0.62 0.68 0.85 0.87 0.73 0.59 0.52 0.58 0.66 0.50 0.54 0.61 0.67 0.70 0.82 0.89 0.69 0.71 0.72 0.63 0.64 0.64 0.67 0.75 0.89 0.88 0.92 1.09 1.16 1.22 1.26 1.30 1.39 1.45 1.50 1.61 1.66 1.65 1.72 1.81 1.87 1.77
0.43 0.56 0.72 0.71 0.90 1.05 0.87 0.69 0.61 0.71 1.17 0.78 0.60 0.54 0.64 0.70 1.04 1.12 0.83 0.72 0.72 0.70 0.76 0.82 0.81 0.87 0.96 1.04 1.19 1.31 1.36 1.46 1.53 1.50 1.51 1.60 1.74 1.83 1.89 2.07 2.30 2.38 2.37 2.24
0.86 0.90 0.90 0.88 0.96 0.97 0.83 0.68 0.69 1.20 1.45 0.91 0.73 0.62 0.67 0.75 0.90 0.96 0.81 0.73 0.76 0.83 0.95 1.07 1.18 1.23 1.26 1.20 1.30 1.48 1.67 1.75 1.76 1.90 1.94 1.96 2.05 2.18 2.26 2.50 2.67 2.70 2.69 2.77
1.14 1.17 1.13 1.14 1.34 1.36 0.97 0.94 1.16 1.38 1.20 1.01 0.95 0.88 0.76 0.74 0.78 0.89 0.90 0.87 0.86 0.90 1.06 1.17 1.29 1.37 1.40 1.50 1.60 1.66 1.75 1.86 1.96 2.02 2.12 2.21 2.37 2.30 2.37 2.66 2.72 2.84 2.98 2.99
1.16 1.21 1.25 1.33 1.43 1.29 1.14 1.27 1.33 1.22 1.27 1.20 1.05 1.04 0.92 0.86 0.82 0.80 0.85 0.90 0.95 0.94 1.00 1.17 1.22 1.30 1.44 1.56 1.68 1.89 1.99 2.00 2.08 2.17 2.25 2.43 2.61 2.74 2.82 2.99 3.08 3.05 3.03 3.00
1.30 1.14 1.31 1.50 1.58 1.47 1.51 1.48 1.40 1.36 1.34 1.21 1.04 1.07 1.04 0.95 0.86 0.85 0.93 0.95 0.94 0.94 0.97 1.08 1.15 1.29 1.42 1.54 1.74 1.98 2.03 2.00 2.13 2.28 2.34 2.48 2.63 2.74 2.83 3.01 3.07 3.05 3.00 2.99
1.52 1.45 1.71 1.93 1.93 1.93 1.94 1.77 1.53 1.38 1.25 1.17 1.11 1.13 1.10 1.06 1.01 0.95 0.98 1.05 0.95 0.88 0.95 1.08 1.12 1.22 1.35 1.38 1.58 1.82 2.00 2.10 2.27 2.41 2.51 2.62 2.77 2.91 3.01 2.92 2.98 3.06 3.03 2.94
1.62 1.76 1.99 2.19 2.01 1.98 2.04 1.81 1.52 1.46 1.49 1.42 1.41 1.38 1.31 1.24 1.21 1.10 1.01 1.02 0.97 0.93 1.00 1.16 1.20 1.24 1.30 1.35 1.50 1.68 1.92 2.14 2.45 2.52 2.57 2.64 2.71 2.85 2.87 2.86 2.82 2.79 2.67 2.63

GEFSCGP_prec_meanprecacc_330.txt.gz
Total_Precipitation_Accumulation
0.01 0.02 0.02 0.01 0.02 0.04 0.06 0.13 0.24 0.23 0.22 0.32 0.41 0.61 0.80 0.90 1.14 1.47 1.66 1.64 1.62 1.94 2.40 2.77 3.07 3.18 3.50 3.71 3.88 3.90 4.16 4.60 4.96 4.81 4.50 4.34 4.12 3.88 3.63 3.35 3.27 3.33 3.33 3.49
0.01 0.02 0.01 0.02 0.02 0.03 0.04 0.10 0.21 0.24 0.23 0.37 0.52 0.74 0.90 1.10 1.38 1.51 1.42 1.40 1.55 1.94 2.45 2.83 3.08 3.21 3.47 3.74 4.17 4.31 4.52 4.92 5.08 4.93 4.81 4.67 4.56 4.15 4.03 3.87 3.71 3.34 3.15 3.27
0.01 0.02 0.01 0.02 0.02 0.03 0.06 0.12 0.19 0.23 0.30 0.45 0.60 1.05 1.20 1.34 1.51 1.52 1.44 1.62 1.63 1.71 2.14 2.43 2.53 2.70 2.88 3.03 3.28 3.58 4.10 4.64 4.86 4.92 4.82 4.79 4.82 4.38 4.13 3.98 3.82 3.44 3.16 3.06
0.01 0.02 0.01 0.02 0.03 0.03 0.08 0.10 0.11 0.16 0.28 0.57 0.68 1.34 1.51 1.69 1.85 1.71 1.61 1.54 1.53 1.77 2.08 2.09 1.90 2.05 2.31 2.31 2.62 3.04 3.53 3.90 4.15 4.24 4.25 4.31 4.29 4.21 4.12 3.96 3.61 3.38 3.15 3.03
0.02 0.02 0.03 0.05 0.03 0.03 0.07 0.10 0.13 0.18 0.31 0.56 0.61 1.01 1.55 1.91 2.10 1.73 1.61 1.45 1.52 1.74 1.77 1.72 1.73 1.84 1.99 2.15 2.46 2.78 3.12 3.43 3.61 3.70 3.80 3.92 3.82 3.85 3.74 3.57 3.39 3.19 3.03 2.89
0.03 0.04 0.04 0.04 0.04 0.06 0.07 0.13 0.22 0.30 0.51 0.92 0.79 0.91 1.46 1.82 1.67 1.47 1.40 1.19 1.31 1.49 1.57 1.61 1.69 1.81 1.93 2.23 2.59 2.88 3.12 3.36 3.43 3.22 3.12 3.18 3.24 3.30 3.25 3.11 2.94 2.74 2.70 2.62
0.13 0.11 0.08 0.07 0.08 0.10 0.11 0.24 0.72 1.15 1.47 1.37 0.85 0.96 1.55 1.44 1.13 1.06 1.14 1.12 1.12 1.15 1.29 1.38 1.57 1.77 1.94 2.06 2.16 2.60 3.03 3.21 3.12 2.86 2.68 2.63 2.78 2.89 2.83 2.72 2.64 2.55 2.44 2.40
0.28 0.27 0.15 0.11 0.14 0.15 0.16 0.27 0.78 1.10 1.20 1.17 0.96 1.35 1.85 1.43 0.99 0.84 0.95 0.95 0.85 0.79 0.76 0.84 1.02 1.14 1.28 1.33 1.35 1.53 1.81 2.07 2.15 2.04 2.07 2.14 2.19 2.26 2.27 2.48 2.32 2.32 2.25 2.16
0.17 0.17 0.13 0.14 0.19 0.20 0.26 0.31 0.33 0.57 0.79 1.19 1.21 1.43 1.55 1.26 0.97 0.93 1.01 0.92 0.75 0.71 0.66 0.73 0.84 0.90 0.98 1.00 1.05 1.20 1.44 1.69 1.74 1.74 1.80 1.85 1.87 1.93 1.97 2.03 1.98 1.95 2.02 1.99
0.11 0.12 0.13 0.13 0.17 0.21 0.22 0.30 0.46 0.74 1.00 1.16 1.27 1.66 1.84 1.64 1.33 1.14 1.09 0.97 0.76 0.64 0.63 0.70 0.81 0.85 0.94 1.04 1.20 1.33 1.44 1.55 1.55 1.54 1.56 1.51 1.62 1.65 1.71 1.70 1.64 1.67 1.76 1.79
0.09 0.10 0.15 0.21 0.24 0.25 0.26 0.34 0.50 0.69 0.75 0.98 1.40 1.57 1.34 1.28 1.25 1.30 1.25 1.04 0.82 0.65 0.60 0.67 0.79 0.84 0.89 1.02 1.16 1.31 1.41 1.52 1.49 1.44 1.50 1.56 1.59 1.64 1.61 1.58 1.50 1.58 1.67 1.73
0.10 0.12 0.18 0.27 0.24 0.18 0.25 0.35 0.51 0.78 0.82 0.85 1.04 1.24 0.87 0.87 0.97 1.06 1.06 0.85 0.67 0.62 0.62 0.68 0.80 0.85 0.98 1.05 1.12 1.16 1.27 1.41 1.41 1.42 1.55 1.75 1.74 1.74 1.70 1.56 1.50 1.56 1.59 1.64
0.16 0.16 0.30 0.58 0.54 0.29 0.28 0.28 0.38 0.53 0.66 0.75 1.00 1.20 0.82 0.86 0.98 0.96 0.94 0.83 0.75 0.72 0.72 0.78 0.84 0.82 0.94 1.05 1.10 1.12 1.21 1.34 1.51 1.54 1.59 1.75 1.78 1.72 1.61 1.54 1.51 1.53 1.53 1.56
0.14 0.16 0.27 0.66 0.70 0.46 0.34 0.30 0.33 0.46 0.60 0.59 0.62 0.87 0.87 0.86 0.99 0.99 0.98 0.95 0.93 0.82 0.82 0.93 1.01 0.93 0.93 0.97 1.01 1.05 1.17 1.32 1.36 1.36 1.42 1.51 1.46 1.46 1.47 1.49 1.48 1.46 1.51 1.54
0.14 0.18 0.19 0.29 0.41 0.44 0.40 0.33 0.30 0.33 0.36 0.50 0.58 0.78 0.97 0.98 1.02 0.92 0.86 0.87 0.89 0.84 0.80 0.87 0.82 0.77 0.77 0.80 0.84 0.91 0.94 1.06 1.22 1.31 1.37 1.45 1.48 1.47 1.47 1.42 1.36 1.43 1.50 1.47
0.21 0.26 0.25 0.32 0.41 0.45 0.43 0.38 0.32 0.30 0.29 0.36 0.49 0.70 0.77 0.85 0.90 0.93 0.88 0.89 0.84 0.77 0.78 0.72 0.60 0.56 0.61 0.69 0.74 0.82 0.85 0.93 1.06 1.10 1.20 1.43 1.55 1.56 1.51 1.40 1.40 1.46 1.52 1.59
0.33 0.38 0.36 0.40 0.49 0.62 0.63 0.40 0.36 0.37 0.34 0.46 0.73 0.85 0.85 0.99 0.99 0.91 0.85 0.82 0.74 0.69 0.68 0.63 0.54 0.54 0.61 0.69 0.76 0.82 0.89 0.93 1.02 1.09 1.19 1.27 1.39 1.46 1.37 1.29 1.34 1.38 1.46 1.59
0.39 0.56 0.57 0.54 0.72 0.92 0.74 0.43 0.37 0.42 0.41 0.43 0.58 0.69 0.77 1.00 1.03 0.83 0.71 0.70 0.68 0.65 0.62 0.61 0.61 0.63 0.76 0.77 0.84 0.98 1.11 1.11 1.12 1.24 1.33 1.32 1.40 1.51 1.51 1.46 1.47 1.57 1.63 1.66
0.34 0.54 0.62 0.68 0.85 0.87 0.74 0.59 0.52 0.58 0.66 0.50 0.55 0.61 0.68 0.72 0.82 0.90 0.70 0.71 0.72 0.63 0.64 0.65 0.68 0.76 0.90 0.91 0.94 1.12 1.20 1.26 1.30 1.34 1.44 1.49 1.54 1.64 1.69 1.68 1.75 1.84 1.90 1.79
0.43 0.56 0.72 0.71 0.90 1.05 0.87 0.69 0.61 0.71 1.17 0.78 0.60 0.55 0.64 0.70 1.05 1.13 0.84 0.73 0.72 0.71 0.76 0.82 0.82 0.90 0.99 1.07 1.24 1.37 1.40 1.50 1.58 1.55 1.57 1.65 1.78 1.86 1.92 2.10 2.33 2.40 2.40 2.26
0.87 0.90 0.90 0.88 0.96 0.97 0.83 0.68 0.69 1.20 1.46 0.92 0.73 0.62 0.67 0.76 0.91 0.97 0.82 0.75 0.77 0.84 0.96 1.09 1.21 1.26 1.29 1.23 1.35 1.54 1.71 1.79 1.80 1.94 1.99 2.01 2.11 2.23 2.31 2.54 2.70 2.74 2.71 2.79
1.15 1.17 1.13 1.15 1.34 1.36 0.97 0.94 1.16 1.38 1.20 1.01 0.95 0.88 0.76 0.75 0.79 0.90 0.92 0.89 0.87 0.90 1.07 1.19 1.31 1.39 1.43 1.53 1.63 1.70 1.77 1.87 1.99 2.04 2.13 2.23 2.40 2.34 2.42 2.71 2.77 2.88 3.02 3.02
1.16 1.21 1.25 1.33 1.44 1.30 1.14 1.27 1.33 1.22 1.27 1.20 1.05 1.04 0.93 0.87 0.83 0.82 0.86 0.90 0.95 0.95 1.01 1.18 1.24 1.33 1.47 1.59 1.71 1.91 2.00 2.02 2.09 2.18 2.26 2.44 2.63 2.76 2.85 3.04 3.14 3.10 3.07 3.03
1.31 1.14 1.32 1.51 1.59 1.47 1.51 1.48 1.40 1.36 1.34 1.21 1.04 1.08 1.06 0.96 0.87 0.86 0.93 0.96 0.94 0.94 0.98 1.09 1.17 1.31 1.44 1.56 1.76 1.99 2.05 2.01 2.14 2.30 2.36 2.50 2.65 2.76 2.85 3.04 3.11 3.10 3.03 3.01
1.54 1.46 1.71 1.94 1.94 1.94 1.95 1.77 1.53 1.38 1.25 1.17 1.11 1.13 1.10 1.06 1.01 0.95 0.99 1.07 0.98 0.90 0.97 1.09 1.13 1.23 1.36 1.39 1.59 1.83 2.01 2.12 2.31 2.45 2.55 2.67 2.81 2.94 3.04 2.94 3.00 3.08 3.06 2.97
1.65 1.79 2.01 2.21 2.02 2.00 2.07 1.82 1.52 1.47 1.49 1.42 1.41 1.39 1.32 1.24 1.21 1.10 1.02 1.03 0.99 0.96 1.02 1.17 1.22 1.25 1.32 1.37 1.53 1.70 1.94 2.16 2.48 2.57 2.63 2.68 2.75 2.90 2.91 2.90 2.84 2.81 2.69 2.66

GEFSCGP_prec_meanprecacc_336.txt.gz
Total_Precipitation_Accumulation
0.01 0.02 0.02 0.01 0.02 0.04 0.06 0.13 0.25 0.26 0.26 0.36 0.45 0.63 0.82 0.91 1.16 1.49 1.71 1.67 1.64 1.95 2.42 2.79 3.09 3.18 3.51 3.71 3.89 3.91 4.17 4.61 4.97 4.81 4.50 4.35 4.13 3.90 3.65 3.38 3.29 3.36 3.35 3.51
0.01 0.02 0.01 0.02 0.02 0.03 0.04 0.10 0.21 0.27 0.26 0.40 0.55 0.78 0.92 1.11 1.39 1.53 1.44 1.42 1.56 1.95 2.46 2.84 3.10 3.21 3.47 3.75 4.17 4.31 4.53 4.92 5.09 4.94 4.81 4.68 4.56 4.16 4.05 3.89 3.73 3.35 3.17 3.29
0.01 0.02 0.01 0.02 0.02 0.03 0.06 0.12 0.20 0.25 0.34 0.49 0.63 1.09 1.23 1.37 1.53 1.56 1.46 1.64 1.64 1.72 2.15 2.44 2.55 2.71 2.88 3.03 3.28 3.58 4.11 4.65 4.86 4.93 4.82 4.79 4.83 4.39 4.14 4.01 3.86 3.46 3.18 3.08
0.01 0.02 0.01 0.02 0.03 0.03 0.08 0.11 0.12 0.17 0.31 0.60 0.71 1.40 1.58 1.73 1.90 1.77 1.65 1.57 1.54 1.77 2.09 2.10 1.92 2.06 2.32 2.31 2.62 3.04 3.53 3.91 4.15 4.24 4.25 4.31 4.29 4.22 4.13 3.98 3.63 3.40 3.17 3.05
0.02 0.02 0.03 0.05 0.03 0.03 0.07 0.10 0.13 0.18 0.32 0.59 0.66 1.07 1.62 1.96 2.15 1.78 1.63 1.48 1.54 1.75 1.78 1.74 1.74 1.85 2.00 2.15 2.46 2.78 3.13 3.44 3.61 3.71 3.80 3.92 3.82 3.86 3.75 3.59 3.40 3.20 3.05 2.91
0.03 0.04 0.04 0.04 0.04 0.06 0.07 0.13 0.22 0.31 0.52 0.94 0.84 0.95 1.50 1.86 1.72 1.50 1.42 1.22 1.33 1.50 1.58 1.62 1.71 1.82 1.95 2.25 2.60 2.88 3.13 3.37 3.44 3.22 3.13 3.18 3.24 3.30 3.26 3.12 2.96 2.75 2.71 2.64
0.13 0.11 0.08 0.07 0.08 0.10 0.11 0.24 0.72 1.16 1.48 1.38 0.87 0.98 1.58 1.47 1.15 1.07 1.16 1.15 1.15 1.17 1.30 1.40 1.59 1.78 1.98 2.09 2.17 2.60 3.03 3.22 3.12 2.86 2.68 2.63 2.78 2.90 2.84 2.72 2.65 2.57 2.44 2.40
0.28 0.27 0.15 0.11 0.14 0.16 0.16 0.27 0.79 1.11 1.20 1.18 0.97 1.37 1.88 1.46 1.02 0.87 0.97 0.98 0.88 0.81 0.77 0.85 1.04 1.15 1.30 1.34 1.36 1.53 1.82 2.07 2.15 2.05 2.07 2.14 2.19 2.27 2.28 2.48 2.33 2.32 2.26 2.16
0.17 0.17 0.13 0.14 0.19 0.20 0.26 0.31 0.33 0.57 0.80 1.20 1.24 1.45 1.58 1.29 0.99 0.96 1.04 0.95 0.77 0.73 0.67 0.74 0.86 0.91 0.99 1.01 1.05 1.20 1.44 1.69 1.74 1.74 1.81 1.85 1.87 1.93 1.98 2.03 1.99 1.96 2.03 2.00
0.11 0.12 0.13 0.13 0.17 0.21 0.22 0.31 0.46 0.74 1.00 1.17 1.28 1.67 1.87 1.67 1.36 1.16 1.14 1.02 0.79 0.68 0.65 0.72 0.83 0.86 0.95 1.06 1.21 1.34 1.44 1.55 1.56 1.55 1.57 1.52 1.63 1.67 1.72 1.70 1.65 1.67 1.76 1.79
0.09 0.10 0.15 0.21 0.24 0.25 0.26 0.34 0.50 0.69 0.75 0.99 1.42 1.59 1.36 1.29 1.26 1.32 1.28 1.10 0.83 0.67 0.63 0.69 0.82 0.86 0.92 1.05 1.18 1.32 1.42 1.53 1.51 1.45 1.51 1.57 1.59 1.64 1.61 1.58 1.50 1.58 1.68 1.74
0.10 0.12 0.18 0.27 0.24 0.18 0.25 0.35 0.51 0.78 0.83 0.86 1.05 1.25 0.88 0.88 0.99 1.08 1.09 0.88 0.70 0.63 0.65 0.72 0.83 0.88 1.01 1.07 1.14 1.18 1.29 1.42 1.43 1.44 1.56 1.77 1.75 1.74 1.70 1.56 1.51 1.56 1.60 1.65
0.16 0.16 0.30 0.58 0.54 0.29 0.28 0.28 0.38 0.54 0.66 0.76 1.01 1.21 0.83 0.88 0.99 0.99 0.97 0.87 0.80 0.74 0.75 0.83 0.89 0.86 0.97 1.10 1.16 1.17 1.25 1.37 1.53 1.57 1.63 1.78 1.80 1.74 1.63 1.55 1.52 1.54 1.55 1.58
0.14 0.16 0.27 0.67 0.70 0.47 0.34 0.31 0.34 0.47 0.60 0.59 0.62 0.88 0.88 0.87 1.01 1.05 1.05 0.99 0.96 0.84 0.84 0.99 1.06 0.96 0.97 1.03 1.13 1.20 1.28 1.37 1.41 1.42 1.49 1.58 1.51 1.49 1.50 1.53 1.52 1.50 1.54 1.57
0.14 0.18 0.19 0.29 0.41 0.44 0.40 0.33 0.30 0.33 0.36 0.50 0.59 0.79 0.97 0.99 1.03 0.96 0.94 0.91 0.91 0.87 0.83 0.93 0.88 0.81 0.81 0.85 0.96 1.14 1.06 1.12 1.26 1.35 1.42 1.51 1.53 1.53 1.56 1.51 1.42 1.48 1.54 1.51
0.21 0.26 0.25 0.32 0.41 0.45 0.43 0.38 0.32 0.31 0.29 0.37 0.50 0.71 0.78 0.86 0.91 0.96 0.95 0.93 0.87 0.80 0.83 0.78 0.72 0.62 0.66 0.76 0.82 0.96 0.97 1.02 1.14 1.16 1.26 1.48 1.61 1.63 1.59 1.50 1.51 1.52 1.56 1.61
0.33 0.38 0.36 0.40 0.49 0.62 0.63 0.40 0.36 0.38 0.35 0.47 0.74 0.86 0.85 1.01 1.02 0.95 0.96 0.93 0.82 0.79 0.80 0.73 0.66 0.61 0.66 0.78 0.83 0.89 1.00 1.05 1.11 1.14 1.23 1.31 1.44 1.52 1.43 1.36 1.42 1.44 1.50 1.62
0.39 0.56 0.57 0.54 0.72 0.92 0.74 0.44 0.38 0.42 0.42 0.44 0.59 0.70 0.78 1.01 1.07 0.89 0.81 0.81 0.77 0.75 0.74 0.74 0.70 0.70 0.82 0.85 0.92 1.06 1.18 1.16 1.18 1.31 1.40 1.36 1.47 1.63 1.62 1.55 1.56 1.65 1.70 1.70
0.34 0.54 0.62 0.68 0.85 0.87 0.74 0.59 0.52 0.59 0.67 0.51 0.56 0.63 0.69 0.74 0.85 0.93 0.76 0.79 0.78 0.68 0.70 0.72 0.75 0.81 0.94 0.96 1.00 1.20 1.29 1.33 1.38 1.43 1.55 1.57 1.58 1.75 1.85 1.83 1.88 1.96 1.98 1.84
0.43 0.56 0.72 0.71 0.90 1.05 0.87 0.69 0.61 0.71 1.18 0.80 0.62 0.57 0.66 0.72 1.08 1.18 0.89 0.79 0.79 0.75 0.81 0.87 0.87 0.94 1.02 1.11 1.28 1.44 1.48 1.57 1.64 1.60 1.64 1.73 1.84 1.91 1.99 2.20 2.43 2.49 2.46 2.30
0.87 0.90 0.90 0.88 0.96 0.97 0.83 0.68 0.69 1.21 1.47 0.94 0.75 0.64 0.69 0.78 0.93 1.01 0.86 0.80 0.84 0.90 1.02 1.16 1.27 1.32 1.35 1.30 1.40 1.60 1.77 1.86 1.89 2.02 2.07 2.10 2.19 2.31 2.39 2.61 2.76 2.79 2.75 2.82
1.15 1.18 1.13 1.15 1.35 1.37 0.97 0.94 1.16 1.39 1.21 1.02 0.96 0.90 0.79 0.77 0.81 0.94 0.98 0.98 0.99 1.00 1.14 1.24 1.38 1.47 1.51 1.60 1.71 1.84 1.87 2.01 2.21 2.27 2.24 2.29 2.46 2.43 2.53 2.82 2.85 2.94 3.06 3.06
1.17 1.23 1.26 1.34 1.45 1.31 1.15 1.28 1.34 1.23 1.28 1.21 1.06 1.07 0.95 0.89 0.85 0.85 0.96 1.06 1.10 1.03 1.06 1.23 1.29 1.40 1.54 1.66 1.79 1.99 2.08 2.10 2.18 2.30 2.37 2.50 2.68 2.81 2.90 3.11 3.23 3.19 3.13 3.07
1.32 1.15 1.33 1.53 1.61 1.48 1.52 1.49 1.42 1.38 1.36 1.23 1.06 1.10 1.08 0.98 0.90 0.91 0.99 1.04 0.99 0.98 1.02 1.13 1.21 1.35 1.48 1.60 1.80 2.03 2.10 2.06 2.20 2.36 2.41 2.55 2.70 2.79 2.89 3.07 3.14 3.13 3.06 3.03
1.56 1.48 1.73 1.96 1.97 1.96 1.96 1.79 1.54 1.39 1.27 1.19 1.12 1.14 1.13 1.08 1.04 1.00 1.04 1.11 1.01 0.93 1.00 1.12 1.16 1.26 1.38 1.42 1.62 1.86 2.04 2.15 2.36 2.53 2.62 2.73 2.86 2.98 3.06 2.96 3.02 3.09 3.08 2.98
1.68 1.82 2.04 2.24 2.06 2.04 2.09 1.84 1.55 1.49 1.50 1.44 1.43 1.41 1.34 1.28 1.25 1.14 1.06 1.06 1.02 0.98 1.04 1.20 1.24 1.28 1.35 1.39 1.55 1.72 1.97 2.19 2.52 2.64 2.69 2.73 2.81 2.94 2.94 2.92 2.86 2.82 2.71 2.68

GEFSCGP_prec_meanprecacc_342.txt.gz
Total_Precipitation_Accumulation
0.01 0.02 0.02 0.01 0.02 0.04 0.06 0.13 0.25 0.26 0.26 0.36 0.46 0.64 0.83 0.92 1.16 1.50 1.73 1.69 1.65 1.97 2.44 2.81 3.10 3.19 3.51 3.71 3.89 3.91 4.17 4.61 4.97 4.81 4.51 4.36 4.14 3.91 3.67 3.40 3.31 3.37 3.36 3.53
0.01 0.02 0.01 0.02 0.02 0.03 0.04 0.10 0.21 0.27 0.26 0.40 0.56 0.79 0.92 1.12 1.40 1.54 1.45 1.43 1.58 1.98 2.48 2.85 3.12 3.22 3.47 3.75 4.18 4.31 4.53 4.93 5.09 4.94 4.81 4.68 4.57 4.17 4.06 3.92 3.75 3.36 3.17 3.29
0.01 0.02 0.01 0.02 0.02 0.03 0.06 0.12 0.20 0.25 0.34 0.50 0.63 1.09 1.24 1.37 1.54 1.56 1.47 1.65 1.66 1.74 2.16 2.44 2.56 2.71 2.88 3.03 3.29 3.58 4.11 4.65 4.87 4.93 4.83 4.79 4.83 4.39 4.15 4.02 3.87 3.47 3.18 3.08
0.01 0.02 0.01 0.02 0.03 0.03 0.08 0.11 0.12 0.17 0.31 0.60 0.71 1.41 1.58 1.74 1.91 1.77 1.65 1.58 1.55 1.78 2.10 2.11 1.93 2.07 2.32 2.31 2.62 3.05 3.53 3.92 4.16 4.25 4.26 4.31 4.29 4.22 4.13 3.99 3.63 3.41 3.17 3.06
0.02 0.02 0.03 0.05 0.03 0.03 0.07 0.10 0.13 0.18 0.32 0.59 0.66 1.07 1.62 1.97 2.17 1.78 1.63 1.48 1.54 1.75 1.78 1.74 1.75 1.85 2.00 2.16 2.47 2.78 3.13 3.44 3.62 3.71 3.80 3.93 3.83 3.86 3.75 3.60 3.41 3.21 3.06 2.93
0.03 0.04 0.04 0.04 0.04 0.06 0.07 0.13 0.22 0.31 0.52 0.94 0.84 0.95 1.50 1.87 1.72 1.50 1.42 1.22 1.33 1.50 1.58 1.63 1.72 1.83 1.95 2.26 2.60 2.88 3.13 3.37 3.44 3.22 3.13 3.18 3.25 3.30 3.26 3.12 2.96 2.76 2.71 2.64
0.13 0.11 0.08 0.07 0.08 0.10 0.11 0.24 0.72 1.16 1.48 1.39 0.87 0.98 1.58 1.47 1.15 1.07 1.16 1.15 1.15 1.17 1.30 1.41 1.61 1.80 1.98 2.09 2.17 2.60 3.03 3.22 3.12 2.86 2.68 2.63 2.78 2.90 2.84 2.73 2.66 2.57 2.45 2.41
0.28 0.27 0.15 0.11 0.14 0.16 0.16 0.28 0.79 1.11 1.21 1.18 0.97 1.37 1.88 1.46 1.02 0.87 0.97 0.98 0.89 0.82 0.78 0.86 1.05 1.17 1.30 1.35 1.36 1.54 1.82 2.07 2.15 2.05 2.08 2.15 2.20 2.28 2.30 2.49 2.34 2.33 2.27 2.17
0.17 0.17 0.13 0.14 0.19 0.20 0.26 0.31 0.34 0.57 0.80 1.20 1.24 1.45 1.58 1.29 0.99 0.96 1.04 0.95 0.78 0.73 0.68 0.75 0.87 0.93 1.00 1.02 1.06 1.20 1.44 1.69 1.74 1.75 1.82 1.86 1.89 1.95 1.99 2.04 1.99 1.96 2.04 2.01
0.11 0.12 0.13 0.13 0.17 0.21 0.22 0.31 0.47 0.74 1.00 1.17 1.28 1.67 1.87 1.67 1.36 1.16 1.14 1.02 0.79 0.68 0.66 0.72 0.84 0.88 0.98 1.07 1.22 1.35 1.46 1.56 1.56 1.56 1.59 1.53 1.64 1.68 1.73 1.72 1.65 1.68 1.77 1.80
0.09 0.10 0.15 0.21 0.24 0.25 0.26 0.34 0.50 0.69 0.75 0.99 1.42 1.59 1.36 1.29 1.26 1.32 1.28 1.10 0.84 0.68 0.63 0.70 0.83 0.88 0.97 1.08 1.19 1.33 1.44 1.54 1.52 1.46 1.53 1.59 1.62 1.67 1.64 1.60 1.52 1.59 1.69 1.74
0.10 0.12 0.19 0.27 0.24 0.19 0.25 0.36 0.51 0.78 0.83 0.86 1.05 1.25 0.88 0.88 0.99 1.08 1.09 0.88 0.70 0.64 0.66 0.72 0.83 0.89 1.04 1.10 1.16 1.19 1.32 1.44 1.45 1.47 1.59 1.80 1.78 1.77 1.72 1.58 1.53 1.58 1.61 1.66
0.16 0.16 0.30 0.58 0.54 0.29 0.28 0.28 0.38 0.54 0.66 0.76 1.01 1.21 0.83 0.88 1.00 0.99 0.97 0.87 0.80 0.75 0.75 0.83 0.89 0.87 1.00 1.13 1.19 1.20 1.30 1.42 1.57 1.61 1.68 1.82 1.85 1.79 1.67 1.60 1.57 1.60 1.60 1.62
0.14 0.16 0.27 0.67 0.70 0.47 0.34 0.31 0.34 0.47 0.60 0.59 0.62 0.88 0.88 0.87 1.01 1.05 1.05 1.00 0.96 0.84 0.84 0.99 1.07 0.97 0.98 1.05 1.16 1.25 1.35 1.46 1.47 1.47 1.54 1.63 1.56 1.53 1.53 1.56 1.56 1.55 1.59 1.62
0.14 0.18 0.19 0.29 0.41 0.44 0.40 0.33 0.30 0.33 0.36 0.50 0.59 0.79 0.97 0.99 1.03 0.96 0.94 0.92 0.92 0.87 0.84 0.93 0.88 0.82 0.82 0.86 0.98 1.17 1.13 1.21 1.35 1.42 1.47 1.55 1.57 1.58 1.60 1.55 1.46 1.52 1.59 1.55
0.21 0.26 0.25 0.32 0.41 0.45 0.43 0.38 0.32 0.31 0.29 0.37 0.50 0.71 0.78 0.86 0.91 0.96 0.96 0.94 0.88 0.81 0.83 0.78 0.72 0.63 0.68 0.79 0.86 1.01 1.02 1.08 1.23 1.27 1.34 1.53 1.65 1.67 1.63 1.54 1.54 1.58 1.62 1.68
0.33 0.38 0.36 0.40 0.49 0.62 0.63 0.40 0.36 0.38 0.35 0.47 0.74 0.86 0.86 1.02 1.02 0.96 0.97 0.94 0.83 0.79 0.81 0.74 0.67 0.64 0.70 0.82 0.89 0.95 1.07 1.12 1.17 1.21 1.29 1.37 1.49 1.55 1.47 1.39 1.45 1.49 1.56 1.69
0.39 0.56 0.57 0.54 0.72 0.92 0.74 0.44 0.39 0.43 0.42 0.44 0.59 0.70 0.79 1.03 1.08 0.90 0.82 0.82 0.78 0.76 0.75 0.76 0.74 0.73 0.86 0.90 0.99 1.15 1.27 1.24 1.25 1.38 1.47 1.43 1.52 1.67 1.67 1.60 1.60 1.70 1.77 1.77
0.34 0.54 0.62 0.68 0.85 0.87 0.74 0.59 0.52 0.59 0.67 0.51 0.56 0.64 0.71 0.75 0.87 0.95 0.78 0.79 0.78 0.69 0.71 0.74 0.79 0.85 1.00 1.02 1.06 1.26 1.36 1.42 1.46 1.51 1.62 1.64 1.64 1.80 1.90 1.88 1.94 2.01 2.05 1.92
0.43 0.56 0.72 0.71 0.90 1.05 0.87 0.69 0.61 0.72 1.18 0.81 0.63 0.59 0.68 0.73 1.09 1.19 0.89 0.79 0.79 0.77 0.84 0.91 0.92 0.99 1.08 1.16 1.34 1.49 1.54 1.65 1.72 1.69 1.72 1.82 1.92 1.99 2.06 2.27 2.50 2.57 2.55 2.39
0.87 0.90 0.90 0.88 0.96 0.97 0.83 0.68 0.70 1.22 1.48 0.95 0.76 0.65 0.70 0.79 0.94 1.02 0.88 0.82 0.86 0.93 1.05 1.20 1.32 1.36 1.39 1.34 1.45 1.65 1.82 1.94 2.01 2.13 2.18 2.22 2.31 2.41 2.47 2.69 2.84 2.89 2.87 2.94
1.15 1.18 1.14 1.15 1.35 1.37 0.97 0.94 1.17 1.39 1.21 1.03 0.97 0.90 0.80 0.78 0.82 0.95 1.00 1.01 1.03 1.05 1.18 1.28 1.41 1.51 1.58 1.67 1.77 1.90 1.93 2.07 2.30 2.37 2.37 2.43 2.62 2.56 2.62 2.89 2.91 2.99 3.13 3.14
1.18 1.24 1.27 1.35 1.46 1.31 1.15 1.28 1.34 1.24 1.29 1.22 1.07 1.07 0.96 0.90 0.86 0.87 0.99 1.09 1.13 1.09 1.14 1.27 1.33 1.44 1.60 1.73 1.86 2.07 2.18 2.18 2.23 2.36 2.44 2.60 2.81 2.92 2.99 3.19 3.31 3.26 3.19 3.12
1.33 1.16 1.33 1.53 1.62 1.49 1.52 1.49 1.42 1.38 1.37 1.24 1.07 1.11 1.09 0.99 0.91 0.92 1.01 1.05 1.01 1.00 1.06 1.17 1.25 1.42 1.57 1.68 1.89 2.11 2.19 2.16 2.29 2.42 2.47 2.62 2.78 2.88 2.98 3.14 3.19 3.18 3.11 3.07
1.56 1.49 1.74 1.97 1.97 1.96 1.97 1.80 1.55 1.40 1.28 1.21 1.14 1.16 1.14 1.09 1.05 1.01 1.06 1.13 1.02 0.95 1.02 1.14 1.19 1.32 1.49 1.51 1.71 1.95 2.12 2.24 2.45 2.61 2.68 2.78 2.91 3.05 3.14 3.03 3.07 3.13 3.11 3.01
1.69 1.83 2.05 2.25 2.07 2.04 2.10 1.85 1.56 1.50 1.52 1.47 1.48 1.45 1.37 1.30 1.27 1.15 1.07 1.08 1.03 0.99 1.06 1.21 1.26 1.31 1.39 1.44 1.60 1.80 2.04 2.25 2.58 2.70 2.74 2.78 2.86 2.99 3.00 2.97 2.91 2.88 2.75 2.72